Home   Weather   Nuremberg   Past weeks

Flag for Germany Past Weather in Nuremberg, Bavaria, Germany — Yesterday and Last 2 Weeks

Now
46 °F

Passing clouds.


Feels Like: 38 °F
Forecast: 33 / 43 °F
Wind: 23 mph from West

Location: Nuernberg

Current Time: Feb 24, 2017 at 12:37:11 am

Latest Report: Feb 24, 2017 at 12:20 am


Visibility: N/A

Pressure: 29.50 "Hg

Humidity: 66%

Dew Point: 36 °F

Location of NurembergLocation

Past Weather in Nuremberg — Graph

°F

Nuremberg Temperature Yesterday

Maximum temperature yesterday: 61 °F (at 3:20 pm)
Minimum temperature yesterday: 46 °F (at 2:50 am)
Average temperature yesterday: 51 °F

High & Low Weather Summary for the Past Weeks

 TemperatureHumidityPressure
High61 °F (Feb 23, 3:20 pm)100% (Feb 16, 6:50 am)30.57 "Hg (Feb 16, 6:50 am)
Low25 °F (Feb 10, 5:20 am)34% (Feb 23, 5:20 pm)29.42 "Hg (Feb 23, 4:50 pm)
Average39 °F80%30.20 "Hg
* Reported Feb 8 11:20 pm — Feb 23 11:20 pm, Nuremberg, Weather by CustomWeather, © 2017

Note: Actual official high and low records may vary slightly from our data, if they occured in-between our weather recording intervals... More about our weather records

Advertising

Nuremberg Weather History for the Previous 24 Hours

Scroll right to see more
 ConditionsComfort  
Time TempWeatherWind HumidityBarometerVisibility
11:20 pm
Thu, Feb 23
46 °FPassing clouds.20 mph66%29.50 "HgN/A
10:50 pm46 °FPartly cloudy.28 mph71%29.50 "HgN/A
10:20 pm48 °FLight rain. Passing clouds.24 mph71%29.50 "HgN/A
9:50 pm50 °FPassing clouds.25 mph67%29.47 "HgN/A
9:20 pm52 °FPassing clouds.33 mph62%29.47 "HgN/A
8:50 pm52 °FPassing clouds.25 mph62%29.47 "HgN/A
8:20 pm52 °FPassing clouds.30 mph62%29.47 "HgN/A
7:50 pm52 °FPassing clouds.31 mph62%29.45 "HgN/A
7:20 pm55 °FClear.28 mph44%29.45 "Hg10 mi
6:50 pm55 °FClear.14 mph44%29.42 "Hg10 mi
6:20 pm57 °FPassing clouds.14 mph41%29.42 "HgN/A
5:50 pm59 °FPassing clouds.16 mph34%29.42 "HgN/A
5:20 pm61 °FSunny.9 mph34%29.42 "Hg10 mi
4:50 pm61 °FSunny.13 mph36%29.42 "Hg10 mi
4:20 pm61 °FSunny.14 mph39%29.45 "Hg10 mi
3:50 pm59 °FSunny.12 mph45%29.45 "Hg10 mi
3:20 pm61 °FSunny.12 mph39%29.47 "Hg10 mi
2:50 pm59 °FSunny.9 mph48%29.50 "Hg10 mi
2:20 pm59 °FSunny.12 mph48%29.50 "Hg10 mi
1:50 pm57 °FPassing clouds.5 mph55%29.53 "HgN/A
1:20 pm54 °FPassing clouds.6 mph63%29.56 "HgN/A
12:50 pm54 °FSunny.8 mph58%29.59 "Hg10 mi
12:20 pm52 °FPassing clouds.6 mph62%29.62 "HgN/A
11:50 am50 °FPassing clouds.13 mph67%29.65 "HgN/A
11:20 am50 °FPartly sunny.13 mph67%29.68 "HgN/A
10:50 am48 °FPartly sunny.16 mph71%29.68 "HgN/A
10:20 am48 °FPartly sunny.14 mph71%29.71 "HgN/A
9:50 am46 °FPartly sunny.16 mph76%29.71 "HgN/A
9:20 am46 °FBroken clouds.14 mph76%29.71 "HgN/A
8:50 am46 °FPartly sunny.14 mph76%29.74 "HgN/A
8:20 am46 °FOvercast.20 mph82%29.74 "HgN/A
7:50 am46 °FOvercast.18 mph82%29.74 "HgN/A
7:20 am46 °FOvercast.17 mph82%29.74 "HgN/A
6:50 am46 °FOvercast.17 mph82%29.74 "HgN/A
6:20 am46 °FOvercast.18 mph82%29.77 "HgN/A
5:50 am46 °FOvercast.20 mph82%29.77 "HgN/A
5:20 am46 °FOvercast.21 mph82%29.77 "HgN/A
4:50 am46 °FOvercast.17 mph82%29.77 "HgN/A
4:20 am46 °FDrizzle. Overcast.18 mph87%29.77 "HgN/A
3:50 am46 °FOvercast.17 mph82%29.77 "HgN/A
3:20 am46 °FDrizzle. Overcast.18 mph87%29.80 "HgN/A
2:50 am46 °FDrizzle. Overcast.21 mph87%29.80 "HgN/A
2:20 am48 °FDrizzle. Overcast.18 mph82%29.80 "HgN/A
1:50 am48 °FDrizzle. Overcast.23 mph82%29.80 "HgN/A
1:20 am48 °FDrizzle. Overcast.20 mph82%29.80 "HgN/A
12:50 am48 °FOvercast.21 mph82%29.80 "HgN/A
12:20 am48 °FPassing clouds.20 mph82%29.80 "HgN/A
Weather by CustomWeather, © 2017

See weather overviewHow to use our weather pages